Regional Weather Roundup
Issued by NWS

Home | Current Version | Previous Version | Text Only | Print | Product List | Glossary On
Versions: 1 2 3 4 5 6 7 8 9 10 11 12 13 14 15 16 17 18 19 20 21 22 23 24 25 26 27 28 29 30 31 32 33 34 35 36 37 38 39 40 41 42 43 44 45 46 47 48 49 50
000
ASUS43 KOAX 301902
RWRNE

WEATHER ROUNDUP FOR NEBRASKA
NATIONAL WEATHER SERVICE OMAHA NE
200 PM CDT TUE SEP 30 2014

NOTES: SATELLITE DATA IS BEING USED TO AUGMENT CLOUD COVER ABOVE
       12000 FEET.
       "FAIR" INDICATES FEW OR NO CLOUDS BELOW 12,000 FEET WITH NO
       SIGNIFICANT WEATHER AND/OR OBSTRUCTIONS TO VISIBILITY.

  * THESE STATIONS DO NOT REPORT WEATHER SUCH AS RAIN...SNOW OR FOG.

NEZ001>004-019>022-054>056-302000-
NEBRASKA PANHANDLE

CITY           SKY/WX    TMP DP  RH WIND       PRES   REMARKS
SCOTTSBLUFF    MOSUNNY   69  42  37 W23G39    29.73S
ALLIANCE       PTSUNNY   64  43  46 W23G31    29.71F
CHADRON        CLOUDY    61  48  62 W31G37    29.65R
KIMBALL        SUNNY     67  36  31 W25G31    29.78F
SIDNEY         SUNNY     71  37  28 W28G40    29.79F
$$

NEZ057>060-069>072-079>082-302000-
SOUTHWEST NEBRASKA

CITY           SKY/WX    TMP DP  RH WIND       PRES   REMARKS
NORTH PLATTE   MOSUNNY   76  41  28 W18G31    29.74F
IMPERIAL       SUNNY     73  42  32 S15G21    29.78S
LEXINGTON      SUNNY     76  49  39 S10G16    29.75F
MCCOOK         SUNNY     76  46  34 S10       29.76F
OGALLALA       SUNNY     76  42  30 W21G33    29.75F
$$

NEZ005>010-023>029-035>040-094-302000-
NORTH CENTRAL NEBRASKA

CITY           SKY/WX    TMP DP  RH WIND       PRES   REMARKS
VALENTINE      CLOUDY    69  45  41 SW36G48   29.60S
AINSWORTH      PTSUNNY   69  44  41 SW25G32   29.65F
BROKEN BOW     MOSUNNY   77  45  32 SW18G26   29.72F
O`NEILL        SUNNY     77  50  38 S18G25    29.69S
ORD            SUNNY     78  44  29 SW20G28   29.71F
THEDFORD       CLOUDY    72  44  36 W25G32    29.71S
$$

NEZ041-046>049-061>064-073>077-083>087-302000-
SOUTH CENTRAL NEBRASKA

CITY           SKY/WX    TMP DP  RH WIND       PRES   REMARKS
GRAND ISLAND   MOSUNNY   75  60  59 S16G24    29.76F
AURORA         CLOUDY    69  61  76 S15G21    29.78F
HASTINGS       MOSUNNY   73  59  61 SE18G24   29.77F
HEBRON         CLOUDY    65  62  90 S8        29.81F
HOLDREGE       SUNNY     75  47  37 S6        29.76F
KEARNEY *      SUNNY     77  48  36 S13       29.76F
YORK           CLOUDY    64  63  94 S14       29.80F
$$

NEZ011>018-030>034-042>045-302000-
NORTHEAST NEBRASKA

CITY           SKY/WX    TMP DP  RH WIND       PRES   REMARKS
NORFOLK        PTSUNNY   71  62  73 S24G32    29.76F
ALBION         SUNNY     75  57  52 S16G23    29.74F
BLAIR          LGT RAIN  68  63  84 SW6       29.84S
COLUMBUS *     CLOUDY    64  61  88 S12       29.81F
FREMONT        HVY RAIN  65  64  93 SE10      29.84S
TEKAMAH        LGT RAIN  66  64  93 S7        29.84R FOG
WAYNE          LGT RAIN  66  64  93 S14G20    29.78F
$$

NEZ050>053-065>068-078-088>093-302000-
SOUTHEAST NEBRASKA

CITY           SKY/WX    TMP DP  RH WIND       PRES   REMARKS
LINCOLN        RAIN      64  62  93 S9        29.84F FOG
OMAHA EPPLEY   CLOUDY    73  60  63 SW7       29.83S
BEATRICE       HVY RAIN  65  63  94 S3        29.84F
FALLS CITY     PTSUNNY   81  59  47 S13G24    29.81F
NEBRASKA CITY  PTSUNNY   78  53  42 S8G17     29.81F
PLATTSMOUTH      N/A     74  58  57 SW8       29.82F
$$

NEZ044-045-051>053-067-302000-
OMAHA AREA

CITY           SKY/WX    TMP DP  RH WIND       PRES   REMARKS
OMAHA EPPLEY   CLOUDY    73  60  63 SW7       29.83S
BLAIR          LGT RAIN  68  63  84 SW6       29.84S
FREMONT        HVY RAIN  65  64  93 SE10      29.84S
MILLARD        LGT RAIN  69  63  79 W3        29.84R
OFFUTT AFB     PTSUNNY   74  64  71 W6        29.81F
PLATTSMOUTH      N/A     74  58  57 SW8       29.82F
WAHOO          RAIN      64  62  91 SE9       29.83F
$$



USA.gov is the U.S. government's official web portal to all federal, state and local government web resources and services.